Regional Weather Roundup
Issued by NWS Burlington, VT

Home | Current Version | Previous Version | Text Only | Print | Product List | Glossary On
Versions: 1 2 3 4 5 6 7 8 9 10 11 12 13 14 15 16 17 18 19 20 21 22 23 24 25 26 27 28 29 30 31 32 33 34 35 36 37 38 39 40 41 42 43 44 45 46 47 48 49 50
000
ASUS41 KBTV 221410
RWRBTV
VERMONT REGIONAL WEATHER ROUNDUP
NATIONAL WEATHER SERVICE BURLINGTON VT
1000 AM EDT WED OCT 22 2014

NOTE: "FAIR" INDICATES FEW OR NO CLOUDS BELOW 12,000 FEET WITH NO
SIGNIFICANT WEATHER AND/OR OBSTRUCTIONS TO VISIBILITY.

* THESE REPORTS ARE NOT UNDER NWS QUALITY CONTROL AND/OR DO NOT
  REPORT WEATHER SUCH AS PRECIPITATION AND FOG.

VTZ001>019-221500-
_____VERMONT_____


CITY           SKY/WX    TMP DP  RH WIND       PRES   REMARKS
BURLINGTON     CLOUDY    48  44  86 N9        30.20R
MONTPELIER     CLOUDY    47  46  97 N7        30.20S
MORRISVILLE    CLOUDY    47  44  90 N6        30.21R
ST. JOHNSBURY*   N/A     49  44  83 MISG      30.17R
LYNDONVILLE*   CLOUDY    49  42  75 N10       30.20S
MIDDLEBURY*    CLOUDY    47  47 100 N10       30.15S
RUTLAND*       CLOUDY    46  45  93 CALM      30.12S
SPRINGFIELD    CLOUDY    49  45  86 N6        30.13S
HIGHGATE*      DRIZZLE   44  43  97 N9        30.22S
NEWPORT*       LGT RAIN  42  41  97 N13       30.22S
BENNINGTON     CLOUDY    52  44  74 N6        30.07R
SUTTON*          N/A     45 N/A N/A MISG        N/A

_____LAKE CHAMPLAIN_____


CITY           SKY/WX    TMP DP  RH WIND       PRES   REMARKS
COLCHESTER RF*   N/A     46  45  93 N23         N/A
DIAMOND ISL*     N/A     46  43  87 NW21        N/A

$$

NYZ007-026>031-035-052-083-221500-
_____NORTHERN NEW YORK_____


CITY           SKY/WX    TMP DP  RH WIND       PRES   REMARKS
PLATTSBURGH    CLOUDY    44  41  89 N16       30.22R
SARANAC LAKE   CLOUDY    40  39  97 N8        30.17R FOG
MASSENA        CLOUDY    46  36  68 NE17G23   30.27R
OGDENSBURG*    PTSUNNY   46  37  71 NE13      30.24R
POTSDAM*       CLOUDY    45  39  81 E10G23    30.24R
WATERTOWN      CLOUDY    48  37  65 NE17G24   30.20S
FT DRUM        CLOUDY    44  39  83 NE14      30.19R
ALBANY         CLOUDY    50  44  80 N10       30.10R
GLENS FALLS    CLOUDY    51  44  77 N14       30.12S

$$
NHZ002-005-011-221500-
_____NEW HAMPSHIRE_____


CITY           SKY/WX    TMP DP  RH WIND       PRES   REMARKS
LEBANON        CLOUDY    50  44  80 N8        30.13S
KEENE          CLOUDY    52  39  62 NE10G21   30.09R
MT WASHINGTON  FRZ RAIN  30  30 100 E54G60      N/A  VSB 0   WCI  11
PLYMOUTH       CLOUDY    49  49  97 CALM      30.14S
WHITEFIELD     CLOUDY    49  44  83 NE10      30.17S

$$

_____REGIONAL QUEBEC LOCATIONS_____


CITY           SKY/WX    TMP DP  RH WIND       PRES   REMARKS
MONTREAL       LGT RAIN  46  37  71 NE17G30   30.29R
QUEBEC CITY    PTSUNNY   45  34  65 NE16G25   30.38R
SHERBROOKE       N/A    N/A N/A N/A MISG        N/A

_____REGIONAL ONTARIO LOCATIONS_____


CITY           SKY/WX    TMP DP  RH WIND       PRES   REMARKS
OTTAWA         PTSUNNY   45  34  65 N13       30.28S

______KEY______
VSB  - VISIBILITY IN MILES
WCI  - WIND CHILL INDEX
HX   - HEAT INDEX
$$
NNNN



USA.gov is the U.S. government's official web portal to all federal, state and local government web resources and services.